Station NBGM3 - 8447627 - New Bedford, Barrier Gate, MA Image indicating link to RSS feed of recent meteorological observations for station NBGM3


Conditions at NBGM3 as of
(11:30 am EDT)
1530 GMT on 04/15/2024:
     

Click on the graph icon in the table below to see a time series plot of the last five days of that observation.

5-day plot - Wind Direction Wind Direction (WDIR): S ( 170 deg true )
5-day plot - Wind Speed Wind Speed (WSPD): 8.0 kts
5-day plot - Wind Gust Wind Gust (GST): 8.9 kts
5-day plot - Atmospheric Pressure Atmospheric Pressure (PRES):29.83 in
5-day plot - Air Temperature Air Temperature (ATMP): 56.8 °F
5-day plot - Wind Speed at 10 Meters Wind Speed at 10 meters (WSPD10M): 7.8 kts
5-day plot - Wind Speed at 20 Meters Wind Speed at 20 meters (WSPD20M): 9.7 kts
5-day plot -  Wind Speed, Wind Gust and Atmospheric Pressure Combined plot of Wind Speed, Gust, and Air Pressure
NOS Water Level Observation Network Water Level
Previous observations
TIME
(EDT)
5-day plot - Wind Direction
WDIR
 
5-day plot - Wind Speed
WSPD
kts
5-day plot - Wind Gust
GST
kts
5-day plot - Wave Height
WVHT
ft
5-day plot - Dominant Wave Period
DPD
sec
5-day plot - Average Wave Period
APD
sec
5-day plot - Mean Wave Direction
MWD
 
5-day plot - Atmospheric Pressure
PRES
in
5-day plot - Pressure Tendency
PTDY
in
5-day plot - Air Temperature
ATMP
°F
5-day plot - Water Temperature
WTMP
°F
5-day plot - Dew Point
DEWP
°F
5-day plot - Salinity
SAL
psu
5-day plot - Visibility
VIS
nmi
5-day plot - Tide (above MLLW)
TIDE
ft
2024-04-15 11:24 amSSE 6.0 6.0----29.83- 55.2-----
2024-04-15 11:18 amSSE 5.1 5.1----29.83- 56.3-----
2024-04-15 11:12 amSSE 5.1 5.1----29.83- 61.2-----
2024-04-15 11:06 am S 5.1 6.0----29.83- 64.2-----
2024-04-15 11:00 am S 4.1 6.0----29.83+0.01 63.3-----
2024-04-15 10:54 am S 5.1 6.0----29.82- 61.0-----
2024-04-15 10:48 amSSE 5.1 6.0----29.82- 59.7-----
2024-04-15 10:42 amSSE 2.9 4.1----29.83- 60.6-----
2024-04-15 10:36 amSSE 1.9 2.9----29.83- 57.9-----
2024-04-15 10:30 am E 1.0 1.0----29.83-------
2024-04-15 10:24 am- 0.0 1.9----29.83-------
2024-04-15 10:18 am SW 1.0 1.9----29.83- 63.5-----
2024-04-15 10:12 amWSW 1.9 2.9----29.83- 62.6-----
2024-04-15 10:06 am SW 1.0 1.9----29.83- 62.2-----
2024-04-15 10:00 am- 0.0 0.0----29.83+0.04 61.3-----
2024-04-15 09:54 am- 0.0 1.9----29.83- 60.1-----
2024-04-15 09:48 amWSW 2.9 4.1----29.83- 58.3-----
2024-04-15 09:42 amWSW 2.9 4.1----29.83- 57.2-----
2024-04-15 09:36 am W 2.9 4.1----29.83- 56.8-----
2024-04-15 09:30 am W 2.9 5.1----29.83- 56.8-----
2024-04-15 09:24 amWSW 5.1 5.1----29.83- 57.7-----
2024-04-15 09:18 amWSW 2.9 4.1----29.82- 57.6-----
2024-04-15 09:12 am W 4.1 5.1----29.83- 55.9-----
2024-04-15 09:06 am W 2.9 7.0----29.83- 54.9-----
2024-04-15 09:00 am W 5.1 6.0----29.83+0.07 54.7-----
2024-04-15 08:54 amWSW 4.1 6.0----29.83- 54.5-----
2024-04-15 08:48 amWSW 5.1 6.0----29.83- 54.0-----
2024-04-15 08:42 amWSW 4.1 6.0----29.83- 54.1-----
2024-04-15 08:36 amWSW 5.1 6.0----29.82- 53.6-----
2024-04-15 08:30 amWSW 5.1 7.0----29.82- 52.5-----
2024-04-15 08:24 amWSW 5.1 8.0----29.82- 53.1-----
2024-04-15 08:18 am SW 6.0 8.0----29.82- 54.1-----
2024-04-15 08:12 am SW 6.0 7.0----29.82- 54.7-----
2024-04-15 08:06 amWSW 2.9 5.1----29.81- 53.4-----
2024-04-15 08:00 am W 2.9 5.1----29.81+0.07 53.1-----
2024-04-15 07:54 amWSW 5.1 8.9----29.81- 51.3-----
2024-04-15 07:48 amWSW 8.9 9.9----29.81- 49.1-----
2024-04-15 07:42 amWSW 8.0 9.9----29.81- 49.3-----
2024-04-15 07:36 amWSW 7.0 9.9----29.80- 47.8-----
2024-04-15 07:30 am SW 8.9 11.1----29.80- 48.2-----
2024-04-15 07:24 amSSW 8.0 8.9----29.80- 48.7-----
2024-04-15 07:18 am S 2.9 5.1----29.79- 49.1-----
2024-04-15 07:12 amSSW 4.1 5.1----29.79- 48.2-----
2024-04-15 07:06 am SW 5.1 6.0----29.79- 48.2-----
2024-04-15 07:00 amSSW 5.1 6.0----29.78+0.05 48.6-----
2024-04-15 06:54 am S 6.0 7.0----29.78- 48.0-----
2024-04-15 06:48 am S 4.1 5.1----29.78- 48.0-----
2024-04-15 06:42 am S 5.1 5.1----29.77- 48.0-----
2024-04-15 06:36 am S 4.1 7.0----29.77- 48.2-----
2024-04-15 06:30 amSSW 7.0 8.0----29.77- 48.2-----
2024-04-15 06:24 amSSW 5.1 8.9----29.77- 48.0-----
2024-04-15 06:18 amSSW 7.0 8.9----29.77- 48.0-----
2024-04-15 06:12 amSSW 4.1 5.1----29.77- 47.8-----
2024-04-15 06:06 am S 5.1 5.1----29.76- 47.7-----
2024-04-15 06:00 amSSW 1.0 1.9----29.76+0.06 47.3-----
2024-04-15 05:54 am NE 1.9 4.1----29.75- 47.3-----
2024-04-15 05:48 am NE 2.9 4.1----29.75- 47.5-----
2024-04-15 05:42 am- 0.0 1.0----29.75- 47.5-----
2024-04-15 05:36 am E 1.0 1.9----29.75- 47.5-----
2024-04-15 05:30 am- 0.0 2.9----29.75- 47.5-----
2024-04-15 05:24 amNNE 1.9 5.1----29.74- 47.5-----
2024-04-15 05:18 amNNE 4.1 6.0----29.74- 47.5-----
2024-04-15 05:12 amNNE 4.1 5.1----29.74- 47.5-----
2024-04-15 05:06 am N 5.1 6.0----29.74- 47.5-----
2024-04-15 05:00 am N 2.9 2.9----29.74+0.05 47.7-----
2024-04-15 04:54 amWSW 1.0 2.9----29.75- 47.7-----
2024-04-15 04:48 amNNW 1.0 4.1----29.74- 47.7-----
2024-04-15 04:42 am N 2.9 4.1----29.74- 47.5-----
2024-04-15 04:36 am N 2.9 4.1----29.73- 47.7-----
2024-04-15 04:30 am N 2.9 2.9----29.73- 47.5-----
2024-04-15 04:24 am N 1.9 2.9----29.73- 47.5-----
2024-04-15 04:18 am N 2.9 4.1----29.73- 47.5-----
2024-04-15 04:12 am N 1.9 4.1----29.73- 47.3-----
2024-04-15 04:06 am N 1.0 1.9----29.73- 47.5-----
2024-04-15 04:00 am- 0.0 1.9----29.73+0.02 47.5-----
2024-04-15 03:54 am- 0.0 1.9----29.73- 47.7-----
2024-04-15 03:48 amWNW 1.9 4.1----29.73- 47.7-----
2024-04-15 03:42 amWNW 2.9 5.1----29.72- 47.8-----
2024-04-15 03:36 amWNW 2.9 5.1----29.72- 47.8-----
2024-04-15 03:30 am W 4.1 6.0----29.72- 47.8-----
2024-04-15 03:24 am W 2.9 6.0----29.72- 47.8-----
2024-04-15 03:18 am W 4.1 7.0----29.71- 47.8-----
2024-04-15 03:12 am W 5.1 8.9----29.71- 47.8-----
2024-04-15 03:06 amWSW 8.0 9.9----29.70- 47.8-----
2024-04-15 03:00 amWSW 8.9 12.0----29.70-0.02 47.8-----
2024-04-15 02:54 amWSW 9.9 13.0----29.70- 47.8-----
2024-04-15 02:48 am SW 8.9 12.0----29.70- 47.8-----
2024-04-15 02:42 amSSW 5.1 7.0----29.70- 48.0-----
2024-04-15 02:36 am SW 5.1 6.0----29.69- 48.0-----
2024-04-15 02:30 am W 1.9 2.9----29.69- 48.0-----
2024-04-15 02:24 amWSW 1.9 4.1----29.68- 48.0-----
2024-04-15 02:18 amWSW 4.1 5.1----29.68- 48.2-----
2024-04-15 02:12 am SW 5.1 7.0----29.69- 48.2-----
2024-04-15 02:06 amWSW 4.1 5.1----29.69- 48.0-----
2024-04-15 02:00 am W 2.9 5.1----29.69-0.05 48.0-----
2024-04-15 01:54 amWSW 4.1 6.0----29.69- 48.0-----
2024-04-15 01:48 amWSW 6.0 8.9----29.69- 48.0-----
2024-04-15 01:42 am SW 7.0 8.9----29.69- 48.2-----
2024-04-15 01:36 am SW 8.0 9.9----29.70- 48.2-----
2024-04-15 01:30 am SW 8.9 8.9----29.70- 48.4-----
2024-04-15 01:24 am SW 7.0 8.9----29.71- 48.4-----
2024-04-15 01:18 am SW 7.0 8.9----29.71- 48.2-----
2024-04-15 01:12 amSSW 8.0 9.9----29.71- 48.2-----
2024-04-15 01:06 amSSW 7.0 8.0----29.71- 48.4-----
2024-04-15 01:00 amSSW 6.0 7.0----29.71-0.04 48.6-----
2024-04-15 12:54 amSSW 7.0 8.0----29.71- 48.9-----
2024-04-15 12:48 amSSW 5.1 7.0----29.71- 49.5-----
2024-04-15 12:42 amWSW 6.0 7.0----29.71- 49.6-----
2024-04-15 12:36 am SW 5.1 6.0----29.71- 49.6-----
2024-04-15 12:30 amWSW 1.9 8.0----29.71- 49.6-----
2024-04-15 12:24 am SW 6.0 7.0----29.72- 49.6-----
2024-04-15 12:18 am SW 4.1 7.0----29.72- 49.6-----
2024-04-15 12:12 am SW 5.1 6.0----29.72- 49.8-----
2024-04-15 12:06 amWSW 4.1 5.1----29.72- 49.8-----
2024-04-15 12:00 amWSW 4.1 5.1----29.72-0.02 49.8-----
2024-04-14 11:54 pm W 2.9 8.0----29.73- 50.0-----
2024-04-14 11:48 pm W 7.0 8.9----29.73- 50.0-----
2024-04-14 11:42 pmWSW 7.0 9.9----29.73- 50.0-----
2024-04-14 11:36 pm W 7.0 8.9----29.73- 50.2-----
2024-04-14 11:30 pm W 5.1 8.0----29.73- 50.2-----
2024-04-14 11:24 pm W 6.0 8.9----29.73- 50.2-----
2024-04-14 11:18 pm W 6.0 9.9----29.73- 50.4-----
2024-04-14 11:12 pmWSW 8.9 12.0----29.73- 50.4-----
2024-04-14 11:06 pmWSW 6.0 11.1----29.73- 50.2-----
2024-04-14 11:00 pmWSW 7.0 12.0----29.74-0.02 50.2-----
2024-04-14 10:54 pmWSW 8.9 13.0----29.73- 50.2-----
2024-04-14 10:48 pmWSW 8.9 13.0----29.73- 50.2-----
2024-04-14 10:42 pm W 8.9 15.0----29.74- 50.4-----
2024-04-14 10:36 pmWSW 9.9 14.0----29.73- 50.4-----
2024-04-14 10:30 pm W 11.1 17.1----29.74- 50.4-----
2024-04-14 10:24 pm W 11.1 15.0----29.74- 50.4-----
2024-04-14 10:18 pmWSW 12.0 15.0----29.74- 50.4-----
2024-04-14 10:12 pmWSW 13.0 17.1----29.75- 50.4-----
2024-04-14 10:06 pmWSW 12.0 18.1----29.74- 50.4-----
2024-04-14 10:00 pmWSW 12.0 14.0----29.75-0.04 50.2-----
2024-04-14 09:54 pmWSW 9.9 13.0----29.75- 50.0-----
2024-04-14 09:48 pmWSW 8.9 13.0----29.75- 49.8-----
2024-04-14 09:42 pmWSW 11.1 14.0----29.75- 49.6-----
2024-04-14 09:36 pmWSW 9.9 13.0----29.75- 49.5-----
2024-04-14 09:30 pm SW 8.9 11.1----29.75- 49.1-----
2024-04-14 09:24 pm SW 7.0 8.9----29.75- 48.7-----
2024-04-14 09:18 pmSSW 8.0 9.9----29.74- 48.6-----
2024-04-14 09:12 pmSSW 6.0 8.9----29.75- 48.4-----
2024-04-14 09:06 pm SW 5.1 8.0----29.75- 48.4-----
2024-04-14 09:00 pm SW 8.0 11.1----29.75-0.03 48.2-----
2024-04-14 08:54 pmSSW 8.9 9.9----29.74- 48.2-----
2024-04-14 08:48 pm SW 8.9 11.1----29.75-------
2024-04-14 08:42 pm SW 8.0 11.1----29.75-------
2024-04-14 08:36 pm SW 8.0 12.0----29.75-------
2024-04-14 08:30 pm-------29.75- 47.8-----
2024-04-14 08:24 pm-------29.76- 47.7-----
2024-04-14 08:18 pmSSW 8.0 8.9------ 47.5-----
2024-04-14 08:12 pmSSW 7.0 8.9------ 47.5-----
2024-04-14 08:06 pmSSW 7.0 8.0------ 47.7-----
2024-04-14 08:00 pm SW 7.0 9.9----29.76-0.04 47.7-----
2024-04-14 07:54 pm S 8.0 8.9----29.75- 47.7-----
2024-04-14 07:48 pm W 1.0 9.9----29.76- 47.7-----
2024-04-14 07:42 pmSSW 8.9 9.9----29.75- 47.7-----
2024-04-14 07:36 pm S 8.0 11.1----29.76- 47.7-----
2024-04-14 07:30 pmSSW 9.9 14.0----29.76- 47.7-----
2024-04-14 07:24 pmSSW 9.9 12.0----29.76- 47.8-----
2024-04-14 07:00 pmSSW 9.9 13.0----29.78+0.00------
2024-04-14 06:54 pmSSW 11.1 14.0----29.79-------
2024-04-14 06:48 pm SW 7.0 8.9----29.81- 48.7-----
2024-04-14 06:42 pmWSW 7.0 8.9----29.82- 48.7-----
2024-04-14 06:36 pm W 5.1 8.0----29.83- 48.9-----
2024-04-14 06:30 pmWNW 7.0 11.1----29.83- 49.1-----
2024-04-14 06:24 pm NW 4.1 8.0----29.83- 49.1-----
2024-04-14 06:18 pmWNW 5.1 8.0----29.82- 49.3-----
2024-04-14 06:12 pm NW 5.1 7.0----29.80- 49.5-----
2024-04-14 06:06 pmWSW 6.0 12.0----29.79- 49.6-----
2024-04-14 06:00 pm SW 8.9 13.0----29.78-0.04 49.8-----
2024-04-14 05:54 pm SW 11.1 13.0----29.78- 50.0-----
2024-04-14 05:48 pmWSW 8.9 12.0----29.79-------
2024-04-14 05:42 pm SW 11.1 15.0----29.79-------
2024-04-14 05:36 pmWSW 8.0 11.1----29.79-------
2024-04-14 05:30 pmWSW 8.9 12.0----29.80-------
2024-04-14 05:24 pmWSW 9.9 13.0----29.79-------
2024-04-14 05:18 pmWSW 8.9 14.0----29.80- 50.0-----
2024-04-14 05:12 pmWSW 9.9 13.0----29.80- 50.0-----
2024-04-14 05:06 pm SW 8.0 12.0----29.79- 50.0-----
2024-04-14 05:00 pm SW 9.9 15.9----29.80-0.06 49.8-----
2024-04-14 04:54 pm SW 13.0 17.1----29.80- 50.2-----
2024-04-14 04:48 pmWSW 13.0 18.1----29.80- 50.4-----
2024-04-14 04:42 pmWSW 13.0 17.1----29.79- 50.9-----
2024-04-14 04:36 pmWSW 11.1 15.0----29.79- 51.4-----
2024-04-14 04:30 pmWSW 13.0 15.0----29.80- 52.2-----
2024-04-14 04:24 pm SW 12.0 15.9----29.80- 53.2-----
2024-04-14 04:18 pm SW 12.0 15.9----29.79- 54.0-----
2024-04-14 04:12 pm SW 12.0 14.0----29.79- 52.2-----
2024-04-14 04:06 pm SW 9.9 13.0----29.78- 52.0-----
2024-04-14 04:00 pmSSW 11.1 13.0----29.78-0.09 52.2-----
2024-04-14 03:54 pm SW 8.9 11.1----29.79- 52.2-----
2024-04-14 03:48 pm SW 9.9 15.0----29.80- 51.8-----
2024-04-14 03:42 pmSSW 12.0 14.0----29.80- 51.8-----
2024-04-14 03:36 pmSSW 8.0 9.9----29.80- 53.2-----
2024-04-14 03:30 pm SW 8.0 11.1----29.80- 53.8-----
2024-04-14 03:24 pmWSW 9.9 14.0----29.80- 53.2-----
2024-04-14 03:18 pmWSW 8.0 12.0----29.80- 53.8-----
2024-04-14 03:12 pmWSW 6.0 8.0----29.80- 53.6-----
2024-04-14 03:06 pm SW 7.0 8.0----29.81- 53.6-----
2024-04-14 03:00 pmWSW 6.0 11.1----29.81-0.06------
2024-04-14 02:54 pm W 11.1 14.0----29.82-------
2024-04-14 02:48 pm W 8.9 13.0----29.83- 53.4-----
2024-04-14 02:42 pm W 7.0 11.1----29.83- 53.2-----
2024-04-14 02:36 pm W 8.0 13.0----29.83- 53.2-----
2024-04-14 02:30 pm W 8.0 14.0----29.84- 53.1-----
2024-04-14 02:24 pm W 6.0 15.0----29.85- 52.9-----
2024-04-14 02:18 pm W 11.1 18.1----29.85- 52.9-----
2024-04-14 02:12 pm W 12.0 18.1----29.86- 52.7-----
2024-04-14 02:06 pm W 8.9 15.9----29.86- 52.3-----
2024-04-14 02:00 pm W 11.1 15.9----29.86-0.02 52.0-----
2024-04-14 01:54 pm W 12.0 22.0----29.86- 52.0-----
2024-04-14 01:48 pm W 14.0 22.0----29.86- 52.0-----
2024-04-14 01:42 pm W 14.0 21.0----29.86- 53.2-----
2024-04-14 01:36 pm W 12.0 17.1----29.86- 54.3-----
2024-04-14 01:30 pm W 14.0 20.0----29.86- 54.7-----
2024-04-14 01:24 pmWSW 15.9 22.0----29.86- 55.0-----
2024-04-14 01:18 pmWSW 15.9 22.0----29.86- 55.6-----
2024-04-14 01:12 pmWSW 19.0 22.0----29.87- 55.6-----
2024-04-14 01:06 pmWSW 17.1 24.1----29.87- 56.5-----
2024-04-14 01:00 pm W 12.0 21.0----29.87-0.02 57.0-----
2024-04-14 12:54 pm W 15.0 22.0----29.87- 56.5-----
2024-04-14 12:48 pmWSW 15.9 22.9----29.87-------
2024-04-14 12:42 pmWSW 18.1 24.1----29.87-------
2024-04-14 12:36 pmWSW 20.0 25.1----29.87-------
2024-04-14 12:30 pmWSW 20.0 26.0----29.87-------
2024-04-14 12:24 pmWSW 22.9 28.0----29.87-------
2024-04-14 12:18 pmWSW 19.0 24.1----29.88- 55.6-----
2024-04-14 12:12 pm W 17.1 27.0----29.88- 56.1-----
2024-04-14 12:06 pm W 15.0 20.0----29.88- 57.2-----
2024-04-14 12:00 pmWNW 11.1 15.9----29.87-0.03 58.8-----
2024-04-14 11:54 amWNW 12.0 17.1----29.88- 58.1-----